Weather in Derby

United Kingdom     52°55′29″N   1°29′01″W
temp.,
°C
wind,
m/s
gust,
m/s
humid.,
%
clouds,
%
prec.,
mm/h
press.,
hPa
HPBL,
m
30 november, tue
tue3000:00+7w71695100 0.1 1011691
03:00+8w81696100 0.0 1011837
06:00+9w91794100 0.1 1010748
09:00+9w91692100 0.0 1010683
12:00+10w81591100 0.1 1009745
15:00+10wsw51292100 0.0 1006423
18:00+8sw81491100 0.0 1003501
21:00+9sw81789100 0.0 997861
1 december, wed
wed100:00+10wsw91687100 0.5 9921166
03:00+7wnw142486100 0.3 9911475
06:00+7wnw111878100 1.1 9931186
09:00+7wnw10177799 0.1 9951427
12:00+6wnw915737 0.2 9951103
15:00+4nnw51296100 0.6 9991021
18:00+3n714695 0.7 1004907
21:00+2nnw612685 0.0 1007649
2 december, thu
thu200:00+1nw5117143 0.0 1009377
03:00+2wnw7147013 0.0 1008738
06:00+1nnw714613 0.0 1009555
09:00+1nnw613690 0.0 1011702
12:00+3nw510605 0.0 1012930
15:00+2nw486449 0.0 1013315
18:000wnw257071 0.0 101491
21:000sw2371100 0.0 101356
3 december, fri
fri300:000sw3880100 0.0 1011207
03:000sw3108895 0.0 1009273
06:00+1sw4997100 0.0 1006376
09:00+2ssw4994100 0.0 1005324
12:00+3ssw4995100 0.1 1001305
15:00+4sw3899100 1.1 999276
18:00+4w4139694 1.7 998360
21:00+5wnw6128983 0.1 999578
4 december, sat
sat400:00+6w7148885 0.1 1000911
03:00+5wnw81480100 0.1 1001887
06:00+4w71476100 0.4 1002811
09:00+3w714815 0.0 1003629
12:00+6w8147298 0.0 10031228
15:00+5wnw7147185 0.0 1004915
18:00+3w61381100 0.0 1005577
21:00+3wnw51181100 0.0 1005400